RA6011G URMM-URMM

Flight info

Callsign RA6011G
Flight time 0h 35m
Altitude 13000
Route 4412N04253E DCT 4403N04251E 4403N04260E DCT 4406N04313E
Aircraft B60T/L-SDFGRY/C

Departure

Time 2026-04-23 22:26
Airport Mineralnye Vody Airport (URMM)

Arrival

Time 2026-04-23 23:01
Airport Mineralnye Vody Airport (URMM)
Time Latitude Longitude Altitude Speed Heading
2026-04-23 22:14 44.21384 43.09837 1073 ft 0 kts 301°
2026-04-23 22:15 44.21386 43.09833 1073 ft 0 kts 301°
2026-04-23 22:16 44.21409 43.09811 1045 ft 6 kts 24°
2026-04-23 22:16 44.21442 43.09826 1045 ft 4 kts 358°
2026-04-23 22:16 44.21495 43.09744 1045 ft 12 kts 302°
2026-04-23 22:16 44.21528 43.09671 1045 ft 7 kts 302°
2026-04-23 22:17 44.21560 43.09600 1045 ft 14 kts 302°
2026-04-23 22:17 44.21627 43.09455 1045 ft 20 kts 295°
2026-04-23 22:17 44.21685 43.09338 1045 ft 13 kts 305°
2026-04-23 22:17 44.21754 43.09216 1045 ft 20 kts 301°
2026-04-23 22:18 44.21809 43.09093 1045 ft 12 kts 302°
2026-04-23 22:18 44.21880 43.09082 1045 ft 9 kts 31°
2026-04-23 22:18 44.21910 43.09107 1045 ft 3 kts 31°
2026-04-23 22:18 44.21917 43.09113 1045 ft 0 kts 31°
2026-04-23 22:19 44.21918 43.09113 1045 ft 1 kts 31°
2026-04-23 22:19 44.21960 43.09130 1045 ft 12 kts 355°
2026-04-23 22:19 44.22029 43.09087 1046 ft 7 kts 332°
2026-04-23 22:20 44.22063 43.09063 1046 ft 8 kts 332°
2026-04-23 22:20 44.22099 43.09036 1047 ft 6 kts 332°
2026-04-23 22:20 44.22143 43.09003 1047 ft 7 kts 332°
2026-04-23 22:20 44.22194 43.08965 1047 ft 11 kts 332°
2026-04-23 22:21 44.22265 43.08913 1047 ft 12 kts 333°
2026-04-23 22:21 44.22323 43.08872 1046 ft 5 kts 333°
2026-04-23 22:21 44.22384 43.08829 1046 ft 11 kts 330°
2026-04-23 22:21 44.22417 43.08794 1047 ft 2 kts 320°
2026-04-23 22:22 44.22418 43.08793 1047 ft 0 kts 320°
2026-04-23 22:23 44.22430 43.08800 1047 ft 7 kts 79°
2026-04-23 22:23 44.22424 43.08867 1047 ft 9 kts 114°
2026-04-23 22:23 44.22410 43.08895 1047 ft 0 kts 124°
2026-04-23 22:25 44.22341 43.09046 1048 ft 57 kts 123°
2026-04-23 22:26 44.22007 43.09774 1138 ft 109 kts 124°
2026-04-23 22:26 44.21528 43.10770 1460 ft 137 kts 123°
2026-04-23 22:26 44.21005 43.11957 1864 ft 151 kts 122°
2026-04-23 22:26 44.20451 43.13256 2317 ft 160 kts 121°
2026-04-23 22:27 44.19874 43.14604 2770 ft 165 kts 121°
2026-04-23 22:27 44.19269 43.15978 3224 ft 168 kts 122°
2026-04-23 22:27 44.18645 43.17363 3684 ft 169 kts 122°
2026-04-23 22:27 44.18008 43.18769 4007 ft 179 kts 122°
2026-04-23 22:28 44.17314 43.20300 4020 ft 193 kts 122°
2026-04-23 22:28 44.16595 43.21886 4022 ft 199 kts 122°
2026-04-23 22:28 44.15840 43.23547 4016 ft 202 kts 122°
2026-04-23 22:28 44.15342 43.24643 4020 ft 202 kts 122°
2026-04-23 22:29 44.14589 43.26300 4013 ft 203 kts 122°
2026-04-23 22:29 44.13832 43.27965 4020 ft 204 kts 122°
2026-04-23 22:29 44.13018 43.29571 4009 ft 203 kts 137°
2026-04-23 22:29 44.11311 43.30361 4009 ft 200 kts 189°
2026-04-23 22:30 44.10439 43.29911 4012 ft 199 kts 215°
2026-04-23 22:30 44.09468 43.27838 4020 ft 197 kts 258°
2026-04-23 22:30 44.09532 43.26020 4015 ft 184 kts 289°
2026-04-23 22:30 44.09872 43.24931 4012 ft 180 kts 296°
2026-04-23 22:31 44.10397 43.23363 4010 ft 178 kts 293°
2026-04-23 22:31 44.10851 43.21789 4017 ft 177 kts 291°
2026-04-23 22:31 44.11293 43.20188 4014 ft 177 kts 291°
2026-04-23 22:31 44.11730 43.18594 4011 ft 176 kts 291°
2026-04-23 22:32 44.12169 43.16999 4012 ft 176 kts 291°
2026-04-23 22:32 44.12607 43.15407 4011 ft 176 kts 291°
2026-04-23 22:32 44.13047 43.13808 4013 ft 177 kts 291°
2026-04-23 22:32 44.13484 43.12214 4000 ft 177 kts 291°
2026-04-23 22:33 44.13923 43.10615 3999 ft 177 kts 291°
2026-04-23 22:33 44.14361 43.09020 4000 ft 176 kts 291°
2026-04-23 22:33 44.14796 43.07432 3997 ft 176 kts 291°
2026-04-23 22:33 44.15232 43.05836 3997 ft 176 kts 291°
2026-04-23 22:34 44.15667 43.04249 4002 ft 175 kts 291°
2026-04-23 22:34 44.16101 43.02666 4005 ft 175 kts 291°
2026-04-23 22:34 44.16535 43.01076 4002 ft 175 kts 291°
2026-04-23 22:34 44.16961 42.99517 4155 ft 169 kts 291°
2026-04-23 22:35 44.17376 42.97994 4310 ft 167 kts 291°
2026-04-23 22:35 44.17788 42.96482 4467 ft 166 kts 291°
2026-04-23 22:35 44.18194 42.94994 4628 ft 166 kts 291°
2026-04-23 22:35 44.18604 42.93488 4787 ft 166 kts 291°
2026-04-23 22:36 44.19004 42.91980 4940 ft 166 kts 286°
2026-04-23 22:36 44.19037 42.90367 5049 ft 171 kts 255°
2026-04-23 22:36 44.18523 42.88881 5207 ft 170 kts 228°
2026-04-23 22:36 44.17594 42.87894 5352 ft 168 kts 201°
2026-04-23 22:37 44.16467 42.87531 5510 ft 166 kts 186°
2026-04-23 22:37 44.15327 42.87286 5669 ft 166 kts 187°
2026-04-23 22:37 44.14187 42.87031 5830 ft 166 kts 187°
2026-04-23 22:37 44.13044 42.86777 5987 ft 166 kts 187°
2026-04-23 22:38 44.11901 42.86523 6140 ft 166 kts 187°
2026-04-23 22:38 44.10761 42.86270 6289 ft 166 kts 187°
2026-04-23 22:38 44.09638 42.86021 6427 ft 165 kts 187°
2026-04-23 22:38 44.08504 42.85769 6563 ft 164 kts 188°
2026-04-23 22:39 44.07376 42.85563 6701 ft 163 kts 179°
2026-04-23 22:39 44.06293 42.85961 6832 ft 163 kts 153°
2026-04-23 22:39 44.05442 42.86998 6960 ft 165 kts 127°
2026-04-23 22:39 44.05006 42.88490 7009 ft 173 kts 100°
2026-04-23 22:40 44.04992 42.90178 7014 ft 176 kts 92°
2026-04-23 22:40 44.04996 42.91891 7013 ft 177 kts 92°
2026-04-23 22:40 44.04996 42.95321 7015 ft 177 kts 92°
2026-04-23 22:41 44.04996 42.97028 7012 ft 176 kts 93°
2026-04-23 22:41 44.04995 42.98725 7010 ft 176 kts 92°
2026-04-23 22:41 44.05078 43.00418 7004 ft 177 kts 77°
2026-04-23 22:41 44.05467 43.02016 7004 ft 177 kts 74°
2026-04-23 22:42 44.05842 43.03641 7003 ft 176 kts 75°
2026-04-23 22:42 44.06215 43.05264 7001 ft 176 kts 75°
2026-04-23 22:42 44.06588 43.06881 6999 ft 176 kts 75°
2026-04-23 22:42 44.06961 43.08495 6961 ft 177 kts 75°
2026-04-23 22:43 44.07346 43.10167 6734 ft 184 kts 75°
2026-04-23 22:43 44.07736 43.11863 6507 ft 184 kts 75°
2026-04-23 22:43 44.08126 43.13553 6283 ft 183 kts 75°
2026-04-23 22:43 44.08514 43.15234 6036 ft 184 kts 74°
2026-04-23 22:44 44.09024 43.16877 5782 ft 188 kts 55°
2026-04-23 22:44 44.09993 43.18103 5533 ft 191 kts 30°
2026-04-23 22:44 44.11244 43.18674 5299 ft 194 kts
2026-04-23 22:44 44.12594 43.18453 5069 ft 194 kts 340°
2026-04-23 22:45 44.13733 43.17493 4850 ft 191 kts 320°
2026-04-23 22:45 44.14825 43.16487 4628 ft 189 kts 342°
2026-04-23 22:45 44.16095 43.16164 4410 ft 187 kts 352°
2026-04-23 22:45 44.17385 43.15928 4189 ft 187 kts 352°
2026-04-23 22:46 44.18677 43.15690 4010 ft 185 kts 352°
2026-04-23 22:46 44.19936 43.15459 4005 ft 179 kts 352°
2026-04-23 22:46 44.21167 43.15229 3998 ft 178 kts 352°
2026-04-23 22:46 44.22390 43.15002 3997 ft 176 kts 352°
2026-04-23 22:47 44.23605 43.14778 4000 ft 176 kts 352°
2026-04-23 22:47 44.24819 43.14552 3998 ft 176 kts 352°
2026-04-23 22:47 44.26030 43.14331 3998 ft 176 kts 352°
2026-04-23 22:47 44.27230 43.14112 3997 ft 176 kts 352°
2026-04-23 22:48 44.28407 43.13685 3943 ft 178 kts 329°
2026-04-23 22:48 44.29265 43.12407 3691 ft 185 kts 303°
2026-04-23 22:48 44.29953 43.10889 3556 ft 184 kts 302°
2026-04-23 22:48 44.30633 43.09373 3425 ft 184 kts 302°
2026-04-23 22:49 44.31315 43.07859 3285 ft 184 kts 302°
2026-04-23 22:49 44.31997 43.06343 3146 ft 184 kts 302°
2026-04-23 22:49 44.32681 43.04824 3014 ft 184 kts 302°
2026-04-23 22:49 44.33355 43.03334 3003 ft 180 kts 302°
2026-04-23 22:50 44.34018 43.01866 2997 ft 178 kts 302°
2026-04-23 22:50 44.34680 43.00403 2995 ft 178 kts 302°
2026-04-23 22:50 44.35342 42.98941 2995 ft 178 kts 302°
2026-04-23 22:50 44.36004 42.97475 2995 ft 178 kts 302°
2026-04-23 22:51 44.36668 42.96009 2994 ft 178 kts 302°
2026-04-23 22:51 44.37101 42.94480 2987 ft 160 kts 271°
2026-04-23 22:51 44.36968 42.93001 2987 ft 147 kts 260°
2026-04-23 22:51 44.37028 42.91655 2989 ft 141 kts 293°
2026-04-23 22:52 44.37591 42.90560 2989 ft 139 kts 317°
2026-04-23 22:52 44.38321 42.89676 2987 ft 139 kts 320°
2026-04-23 22:52 44.39039 42.88784 2985 ft 138 kts 306°
2026-04-23 22:52 44.39200 42.87531 2988 ft 135 kts 250°
2026-04-23 22:53 44.38559 42.86646 2994 ft 133 kts 199°
2026-04-23 22:53 44.37686 42.86215 3001 ft 133 kts 197°
2026-04-23 22:53 44.36780 42.85990 3004 ft 132 kts 182°
2026-04-23 22:53 44.35870 42.86143 2999 ft 132 kts 179°
2026-04-23 22:54 44.34962 42.85982 3002 ft 132 kts 190°
2026-04-23 22:54 44.34062 42.85745 3008 ft 131 kts 192°
2026-04-23 22:54 44.33166 42.85509 3007 ft 131 kts 180°
2026-04-23 22:54 44.32409 42.86029 3003 ft 120 kts 122°
2026-04-23 22:55 44.32181 42.87080 2989 ft 113 kts 117°
2026-04-23 22:55 44.31797 42.88025 2986 ft 111 kts 120°
2026-04-23 22:55 44.31411 42.88951 2987 ft 110 kts 122°
2026-04-23 22:55 44.31014 42.89867 2989 ft 110 kts 122°
2026-04-23 22:56 44.30614 42.90784 2990 ft 110 kts 122°
2026-04-23 22:56 44.30206 42.91690 2989 ft 110 kts 123°
2026-04-23 22:56 44.29796 42.92594 2989 ft 110 kts 123°
2026-04-23 22:56 44.29387 42.93496 2991 ft 110 kts 123°
2026-04-23 22:57 44.28978 42.94398 2991 ft 109 kts 123°
2026-04-23 22:57 44.28573 42.95291 2952 ft 106 kts 123°
2026-04-23 22:57 44.28185 42.96150 2804 ft 103 kts 123°
2026-04-23 22:57 44.27803 42.96996 2656 ft 102 kts 124°
2026-04-23 22:58 44.27424 42.97829 2521 ft 101 kts 125°
2026-04-23 22:58 44.27049 42.98662 2373 ft 101 kts 124°
2026-04-23 22:58 44.26673 42.99491 2227 ft 101 kts 125°
2026-04-23 22:58 44.26297 43.00317 2076 ft 101 kts 124°
2026-04-23 22:59 44.25927 43.01135 1939 ft 99 kts 124°
2026-04-23 22:59 44.25560 43.01947 1797 ft 100 kts 123°
2026-04-23 22:59 44.25187 43.02768 1647 ft 100 kts 123°
2026-04-23 22:59 44.24812 43.03588 1491 ft 100 kts 124°
2026-04-23 23:00 44.24437 43.04397 1369 ft 98 kts 120°
2026-04-23 23:00 44.24086 43.05205 1249 ft 99 kts 122°
2026-04-23 23:00 44.23717 43.06002 1159 ft 96 kts 122°
2026-04-23 23:00 44.23361 43.06801 1061 ft 94 kts 122°
2026-04-23 23:01 44.23061 43.07458 1046 ft 67 kts 122°
2026-04-23 23:01 44.22842 43.07942 1043 ft 53 kts 122°
2026-04-23 23:01 44.22660 43.08347 1045 ft 46 kts 121°
2026-04-23 23:01 44.22500 43.08692 1049 ft 39 kts 124°
2026-04-23 23:02 44.22286 43.08899 1047 ft 33 kts 152°
2026-04-23 23:02 44.22165 43.08985 1047 ft 13 kts 154°
2026-04-23 23:02 44.22087 43.09042 1046 ft 13 kts 152°
2026-04-23 23:02 44.22000 43.09106 1045 ft 16 kts 152°
2026-04-23 23:03 44.21950 43.09133 1045 ft 0 kts 174°
2026-04-23 23:03 44.21919 43.09109 1045 ft 11 kts 214°
2026-04-23 23:03 44.21850 43.09044 1045 ft 17 kts 239°
2026-04-23 23:03 44.21909 43.08882 1045 ft 20 kts 302°
2026-04-23 23:04 44.21977 43.08734 1045 ft 14 kts 302°
2026-04-23 23:04 44.22010 43.08662 1045 ft 5 kts 292°
2026-04-23 23:04 44.21995 43.08613 1045 ft 11 kts 215°
2026-04-23 23:04 44.21953 43.08577 1045 ft 0 kts 211°